CW3439 Weather Reports


Display with metric or nautical units.
time (UTC)temp
F
wind
direction
speed
MPH
gust
MPH
rain 1hr
in
rain 24hr
in
rain mn
in
humidity
%
barometer
mb
20260505170908 63 275 20.0 32.0 0.00 0.02 0.02 78 1006.6
20260505170407 63 260 16.0 33.0 0.00 0.02 0.02 79 1006.7
20260505165908 62 270 18.0 39.0 0.00 0.02 0.02 80 1006.7
20260505164908 62 257 21.0 33.0 0.00 0.02 0.02 79 1006.8
20260505164408 62 249 19.0 36.0 0.00 0.02 0.02 79 1007.0
20260505163907 61 257 23.0 47.0 0.00 0.02 0.02 79 1007.0
20260505163407 61 277 22.0 45.0 0.00 0.02 0.02 79 1006.9
20260505162908 62 264 19.0 35.0 0.00 0.02 0.02 78 1007.0
20260505162407 62 253 19.0 35.0 0.00 0.02 0.02 78 1007.0
20260505161908 62 261 18.0 40.0 0.00 0.02 0.02 79 1006.7
20260505161408 62 256 17.0 38.0 0.00 0.02 0.02 78 1006.5
20260505160907 62 254 19.0 38.0 0.00 0.02 0.02 78 1006.5
20260505160407 61 252 17.0 30.0 0.00 0.02 0.02 80 1006.4
20260505152908 61 262 18.0 30.0 0.00 0.02 0.02 79 1006.5
20260505151907 62 261 16.0 36.0 0.00 0.02 0.02 80 1006.4
20260505151408 61 269 19.0 36.0 0.00 0.02 0.02 81 1006.5
20260505150407 60 263 18.0 30.0 0.00 0.02 0.02 80 1006.2
20260505124907 55 249 14.0 28.0 0.00 0.02 0.02 85 1004.3
20260505123907 56 254 16.0 26.0 0.00 0.02 0.02 86 1004.1
20260505122908 56 253 15.0 26.0 0.00 0.02 0.02 86 1004.2
20260505122407 56 248 13.0 35.0 0.00 0.02 0.02 86 1004.2
20260505121908 56 255 12.0 26.0 0.00 0.02 0.02 85 1004.2
20260505121408 56 250 11.0 29.0 0.00 0.02 0.02 85 1004.2
20260505120908 57 248 17.0 30.0 0.00 0.02 0.02 84 1004.3
20260505120407 57 264 14.0 30.0 0.00 0.02 0.02 84 1004.1
20260505115907 57 260 14.0 35.0 0.00 0.02 0.02 85 1003.9
20260505115407 56 257 17.0 32.0 0.00 0.02 0.02 87 1003.9
20260505114908 55 262 13.0 26.0 0.00 0.02 0.02 87 1003.9
20260505114407 55 273 10.0 17.0 0.00 0.02 0.02 87 1003.8
20260505113907 55 271 12.0 21.0 0.00 0.02 0.02 87 1003.8
20260505113407 55 275 9.0 23.0 0.00 0.02 0.02 87 1003.6
20260505112907 55 279 10.0 22.0 0.00 0.02 0.02 86 1003.4
20260505111907 55 273 10.0 21.0 0.00 0.02 0.02 86 1003.3
20260505111407 55 257 9.0 22.0 0.00 0.02 0.02 86 1003.3
20260505110907 55 273 12.0 24.0 0.00 0.02 0.02 87 1003.2
20260505110408 54 259 12.0 22.0 0.00 0.02 0.02 87 1003.2
20260505101907 51 261 8.0 15.0 0.00 0.02 0.02 89 1002.8
20260505101407 51 275 9.0 17.0 0.00 0.02 0.02 89 1002.6
20260505100907 51 250 6.0 15.0 0.00 0.02 0.02 88 1002.5
20260505100407 51 233 9.0 22.0 0.00 0.02 0.02 88 1002.3
20260505095907 51 224 9.0 18.0 0.00 0.02 0.02 88 1002.3
20260505095407 51 228 8.0 17.0 0.00 0.02 0.02 88 1002.3
20260505094407 52 217 7.0 15.0 0.00 0.02 0.02 87 1002.1
20260505093907 52 220 10.0 17.0 0.00 0.02 0.02 87 1002.2
20260505093407 52 221 6.0 22.0 0.00 0.02 0.02 87 1002.2
20260505092407 52 251 10.0 18.0 0.00 0.02 0.02 87 1002.3
20260505091907 53 243 7.0 16.0 0.00 0.02 0.02 88 1002.2
20260505091407 53 261 9.0 21.0 0.00 0.02 0.02 88 1002.1
20260505090908 53 274 7.0 16.0 0.00 0.02 0.02 89 1002.2
20260505090407 52 272 12.0 23.0 0.00 0.02 0.02 89 1002.2
20260505085907 52 256 7.0 16.0 0.00 0.02 0.02 89 1001.9
20260505085407 52 264 9.0 16.0 0.00 0.02 0.02 89 1002.0
20260505084907 52 224 9.0 18.0 0.00 0.02 0.02 90 1002.0
20260505083908 52 262 5.0 10.0 0.00 0.02 0.02 89 1001.9
20260505083407 52 268 4.0 12.0 0.00 0.02 0.02 89 1001.8
20260505082907 52 272 6.0 16.0 0.00 0.02 0.02 90 1001.9
20260505082407 52 206 9.0 18.0 0.00 0.02 0.02 91 1001.9
20260505081907 52 266 8.0 16.0 0.00 0.02 0.02 92 1002.0
20260505080907 51 255 6.0 13.0 0.00 0.02 0.02 92 1002.2
20260505080407 52 245 3.0 15.0 0.00 0.02 0.02 92 1002.2
20260505075907 52 229 6.0 12.0 0.00 0.02 0.02 92 1002.1
20260505075408 52 233 3.0 7.0 0.00 0.02 0.02 94 1002.1
20260505074907 52 245 5.0 10.0 0.00 0.02 0.02 95 1002.1
20260505074407 51 225 6.0 12.0 0.00 0.02 0.02 95 1002.0
20260505072907 50 214 2.0 9.0 0.00 0.02 0.02 96 1002.3
20260505072407 50 232 5.0 12.0 0.00 0.02 0.02 96 1002.5
20260505071907 49 240 2.0 5.0 0.00 0.02 0.02 95 1002.3
20260505071407 49 241 1.0 5.0 0.00 0.02 0.02 95 1002.6
20260505070908 49 241 0.0 6.0 0.00 0.02 0.02 95 1002.6
20260505065907 49 242 0.0 5.0 0.00 0.02 0.02 94 1002.6
20260505065407 49 242 2.0 5.0 0.00 0.02 0.02 94 1002.7
20260505064907 49 242 2.0 5.0 0.00 0.02 0.02 94 1002.8
20260505064408 49 241 0.0 6.0 0.00 0.02 0.02 93 1002.9
20260505063907 49 247 2.0 6.0 0.00 0.02 0.02 93 1002.9
20260505063407 50 252 3.0 6.0 0.00 0.02 0.02 93 1003.0
20260505062907 51 189 3.0 9.0 0.00 0.02 0.02 93 1003.0
20260505062407 51 216 6.0 10.0 0.00 0.02 0.02 94 1003.1
20260505061907 52 211 5.0 9.0 0.01 0.02 0.02 93 1003.3
20260505061406 52 211 5.0 9.0 0.02 0.02 0.02 94 1003.3
20260505060907 53 209 4.0 10.0 0.02 0.02 0.02 94 1003.3
20260505060407 53 234 3.0 7.0 0.02 0.02 0.02 94 1003.3
20260505055907 53 244 3.0 6.0 0.02 0.02 0.02 94 1003.4
20260505055407 53 267 2.0 6.0 0.02 0.02 0.02 94 1003.6
20260505054907 53 267 4.0 12.0 0.02 0.02 0.02 94 1003.9
20260505054407 53 283 6.0 10.0 0.02 0.02 0.02 94 1004.1
20260505053907 53 262 4.0 15.0 0.02 0.02 0.02 93 1003.8
20260505053407 53 235 4.0 12.0 0.02 0.02 0.02 92 1003.9
20260505052907 53 249 6.0 16.0 0.02 0.02 0.02 91 1003.9
20260505052407 54 215 6.0 21.0 0.02 0.02 0.02 90 1004.0
20260505051907 55 210 6.0 13.0 0.02 0.02 0.02 92 1003.9
20260505051407 55 252 5.0 13.0 0.01 0.01 0.01 92 1003.6
20260505050907 55 263 9.0 18.0 0.01 0.01 0.01 91 1003.8
20260505041407 57 257 18.0 36.0 0.00 0.00 0.00 81 1004.0
20260505040907 57 247 13.0 29.0 0.00 0.00 0.00 80 1003.9
20260505040407 58 260 13.0 29.0 0.00 0.00 0.00 80 1003.9
20260505035906 59 259 13.0 28.0 0.00 0.00 0.00 80 1003.8
20260505034907 58 251 13.0 28.0 0.00 0.00 0.00 81 1003.8
20260505034407 58 254 17.0 36.0 0.00 0.00 0.00 82 1003.7
20260505033907 57 226 13.0 33.0 0.00 0.00 0.00 83 1003.5
20260505033407 57 245 13.0 28.0 0.00 0.00 0.00 82 1003.7
20260505032908 57 230 12.0 23.0 0.00 0.00 0.00 82 1003.8
20260505032407 57 242 10.0 18.0 0.00 0.00 0.00 82 1003.9
20260505031907 56 228 13.0 24.0 0.00 0.00 0.00 87 1003.8
20260505031407 54 217 12.0 21.0 0.00 0.00 0.00 86 1003.9
20260505030907 54 264 8.0 22.0 0.00 0.00 0.00 87 1003.6
20260505030406 53 224 10.0 18.0 0.00 0.00 0.00 87 1003.7
20260505025407 52 203 3.0 13.0 0.00 0.00 0.00 89 1003.4
20260505024907 52 241 2.0 6.0 0.00 0.00 0.00 88 1003.5
20260505024407 52 249 2.0 5.0 0.00 0.00 0.00 88 1003.6
20260505023407 52 266 3.0 6.0 0.00 0.00 0.00 87 1003.7
20260505022907 53 245 2.0 6.0 0.00 0.00 0.00 86 1003.7
20260505022409 53 253 3.0 6.0 0.00 0.00 0.00 85 1003.7
20260505021407 54 231 5.0 10.0 0.00 0.00 0.00 83 1003.9
20260505020907 54 217 3.0 7.0 0.00 0.00 0.00 82 1004.0
20260505015907 56 215 6.0 17.0 0.00 0.00 0.00 80 1004.3
20260505015407 56 217 6.0 13.0 0.00 0.00 0.00 80 1004.3
20260505014907 56 221 9.0 16.0 0.00 0.00 0.00 80 1004.2
20260505014407 56 223 7.0 18.0 0.00 0.00 0.00 81 1004.2
20260505013407 56 235 7.0 16.0 0.00 0.00 0.00 83 1004.1
20260505012907 56 261 5.0 12.0 0.00 0.00 0.00 80 1004.1
20260505012407 56 287 6.0 24.0 0.00 0.00 0.00 78 1004.3
20260505011906 56 210 13.0 28.0 0.00 0.00 0.00 76 1004.4
20260505011407 56 257 10.0 21.0 0.00 0.00 0.00 74 1004.7
20260505010907 55 233 3.0 7.0 0.00 0.00 0.00 74 1004.0
20260505010407 55 231 3.0 7.0 0.00 0.00 0.00 74 1003.8
20260505005907 55 233 2.0 5.0 0.00 0.00 0.00 75 1003.9
20260505005407 55 233 2.0 7.0 0.00 0.00 0.00 75 1003.8
20260505004906 55 239 2.0 6.0 0.00 0.00 0.00 75 1003.9
20260505004407 55 203 3.0 6.0 0.00 0.00 0.00 75 1003.9
20260505003907 55 199 1.0 6.0 0.00 0.00 0.00 76 1003.8
20260505003407 55 199 1.0 5.0 0.00 0.00 0.00 76 1003.8
20260505002907 55 198 1.0 3.0 0.00 0.00 0.00 75 1003.7
20260505002407 55 198 1.0 5.0 0.00 0.00 0.00 75 1003.7
20260505001907 55 198 1.0 3.0 0.00 0.00 0.00 74 1003.6
20260505001407 56 198 2.0 5.0 0.00 0.00 0.00 73 1003.7
20260505000907 56 197 1.0 5.0 0.00 0.00 0.00 72 1003.8
20260505000407 57 197 2.0 9.0 0.00 0.00 0.00 70 1003.9
20260504235907 58 204 3.0 6.0 0.00 0.00 0.00 69 1003.9
20260504235407 59 205 5.0 6.0 0.00 0.00 0.00 67 1003.9
20260504234907 60 208 1.0 6.0 0.00 0.00 0.00 66 1003.9
20260504234406 60 210 5.0 9.0 0.00 0.00 0.00 65 1004.0
20260504233907 60 252 3.0 7.0 0.00 0.00 0.00 65 1004.1
20260504233406 61 264 3.0 10.0 0.00 0.00 0.00 65 1004.3
20260504232407 61 266 5.0 13.0 0.00 0.00 0.00 64 1004.4
20260504231907 61 256 5.0 13.0 0.00 0.00 0.00 64 1004.4
20260504231407 61 253 6.0 17.0 0.00 0.00 0.00 62 1004.4
20260504230907 62 251 7.0 16.0 0.00 0.00 0.00 63 1004.5
20260504230406 62 263 6.0 13.0 0.00 0.00 0.00 62 1004.6
20260504225907 63 252 3.0 16.0 0.00 0.00 0.00 61 1004.7
20260504225406 63 284 7.0 16.0 0.00 0.00 0.00 60 1004.7
20260504223906 66 267 7.0 16.0 0.00 0.00 0.00 55 1004.6
20260504223407 66 233 7.0 17.0 0.00 0.00 0.00 55 1004.6
20260504222907 66 242 7.0 16.0 0.00 0.00 0.00 55 1004.6
20260504222407 67 262 8.0 18.0 0.00 0.00 0.00 55 1004.6
20260504221906 67 247 5.0 18.0 0.00 0.00 0.00 54 1004.5
20260504221407 67 259 9.0 18.0 0.00 0.00 0.00 54 1004.6
20260504220906 67 248 10.0 18.0 0.00 0.00 0.00 54 1004.6
20260504220406 67 258 10.0 24.0 0.00 0.00 0.00 55 1004.4
20260504215907 66 237 9.0 24.0 0.00 0.00 0.00 57 1004.4
20260504215406 65 243 12.0 17.0 0.00 0.00 0.00 58 1004.4
20260504214907 65 230 10.0 22.0 0.00 0.00 0.00 61 1004.4
20260504214407 64 248 7.0 21.0 0.00 0.00 0.00 61 1004.3
20260504213906 64 242 8.0 17.0 0.00 0.00 0.00 64 1004.4
20260504213407 63 243 7.0 21.0 0.00 0.00 0.00 64 1004.5
20260504212906 63 228 9.0 18.0 0.00 0.00 0.00 65 1004.4
20260504212407 62 220 10.0 21.0 0.00 0.00 0.00 66 1004.5
20260504211906 61 246 7.0 17.0 0.00 0.00 0.00 68 1004.5
20260504211406 61 226 7.0 15.0 0.00 0.00 0.00 68 1004.5
20260504210907 62 220 10.0 21.0 0.00 0.00 0.00 65 1004.4
20260504210407 64 218 11.0 18.0 0.00 0.00 0.00 62 1004.4
20260504205906 65 216 10.0 17.0 0.00 0.00 0.00 62 1004.4
20260504205406 65 233 7.0 16.0 0.00 0.00 0.00 62 1004.4
20260504204906 65 232 8.0 21.0 0.00 0.00 0.00 61 1004.5
20260504204407 65 225 9.0 17.0 0.00 0.00 0.00 61 1004.4
20260504203906 65 258 7.0 18.0 0.00 0.00 0.00 62 1004.5
20260504203406 65 222 7.0 13.0 0.00 0.00 0.00 63 1004.5
20260504202907 64 246 7.0 15.0 0.00 0.00 0.00 62 1004.7
20260504202407 65 231 6.0 13.0 0.00 0.00 0.00 61 1004.7
20260504201907 65 233 7.0 16.0 0.00 0.00 0.00 61 1004.8
20260504201406 65 247 10.0 17.0 0.00 0.00 0.00 62 1004.9
20260504200907 64 247 7.0 17.0 0.00 0.00 0.00 64 1005.0
20260504200407 64 225 7.0 16.0 0.00 0.00 0.00 63 1005.1
20260504195906 65 223 5.0 16.0 0.00 0.00 0.00 62 1005.1
20260504195407 68 214 7.0 16.0 0.00 0.00 0.00 57 1005.1
20260504194407 69 255 9.0 23.0 0.00 0.00 0.00 57 1005.2
20260504193906 68 226 9.0 15.0 0.00 0.00 0.00 58 1005.2
20260504193407 66 252 9.0 17.0 0.00 0.00 0.00 61 1005.3
20260504192907 65 225 6.0 21.0 0.00 0.00 0.00 63 1005.5
20260504190907 66 223 9.0 21.0 0.00 0.00 0.00 62 1005.7
20260504190407 65 235 7.0 17.0 0.00 0.00 0.00 63 1005.8
20260504185906 64 229 9.0 17.0 0.00 0.00 0.00 64 1005.8
20260504185406 64 241 7.0 15.0 0.00 0.00 0.00 65 1005.9
20260504184907 64 211 7.0 18.0 0.00 0.00 0.00 66 1005.9
20260504184407 63 231 6.0 15.0 0.00 0.00 0.00 66 1006.1
20260504183906 63 226 8.0 16.0 0.00 0.00 0.00 65 1006.1
20260504183406 63 230 7.0 16.0 0.00 0.00 0.00 66 1006.1
20260504182907 63 232 7.0 13.0 0.00 0.00 0.00 66 1006.2
20260504182406 63 240 9.0 16.0 0.00 0.00 0.00 64 1006.4
20260504181907 64 222 6.0 17.0 0.00 0.00 0.00 66 1006.4
20260504181407 63 217 7.0 18.0 0.00 0.00 0.00 66 1006.5
20260504180407 61 235 8.0 15.0 0.00 0.00 0.00 68 1006.8
20260504175906 61 253 7.0 16.0 0.00 0.00 0.00 70 1006.8
20260504175407 60 231 9.0 15.0 0.00 0.00 0.00 70 1006.8
20260504173906 59 214 10.0 18.0 0.00 0.00 0.00 70 1007.0
20260504173406 59 208 11.0 18.0 0.00 0.00 0.00 69 1007.1
20260504172906 60 220 12.0 21.0 0.00 0.00 0.00 68 1007.2
20260504172406 59 227 10.0 16.0 0.00 0.00 0.00 69 1007.2
20260504171407 59 228 10.0 18.0 0.00 0.00 0.00 70 1007.3